"2009-01-11 00:00:30",530278,10.46,328.4,4.543,0.576,7.438,101.1456,2.222,3.442,26.08,0,109.6,13.52,2.98,290.4
"2009-01-11 00:01:00",530279,10.1,328.5,3.608,0.844,7.271,101.1496,2.232,3.45,26.13,0,109.6,13.52,2.99,290.5
"2009-01-11 00:01:30",530280,10.13,328,3.895,0.538,7.31,101.1499,2.233,3.436,26.12,0,109.6,13.52,2.99,290.0
"2009-01-11 00:02:00",530281,10.04,328.9,3.551,0.605,7.211,101.1465,2.225,3.426,26.15,0,109.6,13.52,2.98,290.9
"2009-01-11 00:02:30",530282,9.86,329.3,3.539,0.567,6.911,101.1371,2.201,3.429,26.2,0,109.6,13.52,2.96,291.3
"2009-01-11 00:03:00",530283,10.08,331.7,3.609,0.685,7.034,101.1352,2.196,3.442,26.22,0,109.6,13.52,2.96,293.7
"2009-01-11 00:03:30",530284,10.89,331.2,3.882,0.649,7.089,101.1343,2.193,3.419,26.13,0,109.6,13.52,2.95,293.2
"2009-01-11 00:04:00",530285,10.79,333.7,4.698,0.671,7.283,101.1363,2.199,3.423,26.01,0,109.6,13.52,2.96,295.7
"2009-01-11 00:04:30",530286,10.93,332.9,3.673,0.59,7.217,101.1436,2.217,3.427,25.98,0,109.6,13.52,2.98,294.9
"2009-01-11 00:05:00",530287,10.54,330.7,4.307,0.622,7.119,101.1516,2.238,3.441,26.06,0,109.6,13.52,3.00,292.7
"2009-01-11 00:05:30",530288,10.59,327.8,4.68,0.701,7.297,101.1538,2.243,3.443,26.07,0,109.6,13.52,3.00,289.8
"2009-01-11 00:06:00",530289,10.54,326.5,4.171,0.566,7.612,101.1541,2.244,3.46,26.06,0,109.6,13.52,3.00,288.5
"2009-01-11 00:06:30",530290,11.11,331.8,3.876,0.703,7.386,101.1541,2.244,3.466,26,0,109.6,13.52,3.00,293.8
"2009-01-11 00:07:00",530291,11.27,335.4,3.978,0.563,7.357,101.1541,2.244,3.46,25.82,0,109.6,13.52,3.00,297.4
"2009-01-11 00:07:30",530292,10.95,332.6,4.337,0.462,7.216,101.1552,2.247,3.456,25.83,0,109.6,13.53,3.01,294.6
"2009-01-11 00:08:00",530293,11.16,332.6,4.557,0.767,7.533,101.1592,2.257,3.493,25.8,0,109.6,13.53,3.02,294.6
"2009-01-11 00:08:30",530294,10.36,331.4,3.656,0.715,7.207,101.1674,2.278,3.482,25.86,0,109.6,13.53,3.04,293.4
"2009-01-11 00:09:00",530295,10.29,331.3,4.051,0.635,7.105,101.1671,2.277,3.492,25.91,0,109.6,13.53,3.04,293.3
"2009-01-11 00:09:30",530296,10.68,330.7,4.359,0.554,7.168,101.1598,2.258,3.486,25.88,0,109.6,13.53,3.02,292.7
"2009-01-11 00:10:00",530297,10.68,330.5,3.555,0.672,7.381,101.1651,2.272,3.501,25.81,0,109.6,13.53,3.03,292.5
"2009-01-11 00:10:30",530298,10.62,330.9,4.448,0.523,7.284,101.1722,2.29,3.51,25.79,0,109.6,13.53,3.05,292.9
"2009-01-11 00:11:00",530299,10.49,329.3,4.064,0.574,7.307,101.1807,2.312,3.515,25.84,0,109.6,13.53,3.07,291.3
"2009-01-11 00:11:30",530300,10.45,330.5,4.424,0.633,7.227,101.1872,2.328,3.519,25.89,0,109.6,13.53,3.09,292.5
"2009-01-11 00:12:00",530301,10.92,331.1,3.848,0.73,7.128,101.1878,2.33,3.515,25.98,0,109.6,13.53,3.09,293.1
"2009-01-11 00:12:30",530302,10.62,332.4,4.031,0.507,7.277,101.1866,2.327,3.526,25.99,0,109.6,13.53,3.09,294.4
"2009-01-11 00:13:00",530303,11.11,330.8,4.165,0.896,7.28,101.1849,2.323,3.521,25.98,0,109.6,13.53,3.08,292.8
"2009-01-11 00:13:30",530304,10.85,332.4,4.03,0.734,7.517,101.188,2.331,3.533,25.83,0,109.6,13.53,3.09,294.4
"2009-01-11 00:14:00",530305,11.02,327.9,5.128,0.657,7.471,101.1892,2.334,3.538,25.89,0,109.6,13.53,3.09,289.9
"2009-01-11 00:14:30",530306,10.62,325.1,3.736,0.708,7.747,101.1898,2.335,3.559,25.89,0,109.5,13.53,3.10,287.1
"2009-01-11 00:15:00",530307,10.71,323.5,3.531,0.637,7.399,101.1918,2.34,3.555,25.94,0,109.6,13.53,3.10,285.5
"2009-01-11 00:15:30",530308,10.57,322.6,3.942,0.621,7.525,101.1988,2.358,3.567,25.89,0,109.6,13.53,3.12,284.6
"2009-01-11 00:16:00",530309,10.45,324.2,4.336,0.619,7.579,101.22,2.412,3.586,25.89,0,109.6,13.53,3.17,286.2
"2009-01-11 00:16:30",530310,10.34,326.8,4.417,0.62,7.534,101.2243,2.423,3.6,25.8,0,109.6,13.53,3.18,288.8
"2009-01-11 00:17:00",530311,10.28,329.4,4.214,0.72,7.539,101.2243,2.423,3.612,25.68,0,109.6,13.52,3.18,291.4
"2009-01-11 00:17:30",530312,10.21,326,4.34,0.62,7.542,101.2305,2.439,3.625,25.7,0,109.6,13.52,3.20,288.0
"2009-01-11 00:18:00",530313,10.15,325.2,3.809,0.662,7.523,101.2384,2.459,3.652,25.75,0,109.6,13.52,3.22,287.2
"2009-01-11 00:18:30",530314,10.16,327.5,3.381,0.552,7.418,101.2432,2.471,3.648,25.7,0,109.6,13.52,3.23,289.5
"2009-01-11 00:19:00",530315,10.3,328.5,4.633,0.6,7.492,101.2509,2.491,3.661,25.66,0,109.6,13.52,3.25,290.5
"2009-01-11 00:19:30",530316,10.61,330,4.359,0.727,7.341,101.2548,2.501,3.688,25.6,0,109.6,13.52,3.26,292.0
"2009-01-11 00:20:00",530317,10.69,327,4.409,0.637,7.557,101.2591,2.512,3.669,25.65,0,109.6,13.52,3.27,289.0
"2009-01-11 00:20:30",530318,10.53,327.7,3.426,0.541,7.526,101.2599,2.514,3.694,25.61,0,109.6,13.52,3.27,289.7
"2009-01-11 00:21:00",530319,10.35,326.6,4.43,0.585,7.622,101.2588,2.511,3.706,25.55,0,109.6,13.52,3.27,288.6
"2009-01-11 00:21:30",530320,10.57,328.6,5.348,0.606,7.578,101.2585,2.51,3.724,25.54,0,109.6,13.52,3.27,290.6
"2009-01-11 00:22:00",530321,9.91,331.4,4.436,0.615,7.475,101.2582,2.51,3.704,25.47,0,109.6,13.53,3.27,293.4
"2009-01-11 00:22:30",530322,10.77,331,3.372,0.655,7.225,101.2579,2.509,3.727,25.4,0,109.5,13.53,3.27,293.0
"2009-01-11 00:23:00",530323,10.66,333,3.394,0.688,7.328,101.2591,2.512,3.729,25.38,0,109.6,13.53,3.27,295.0
"2009-01-11 00:23:30",530324,10.84,334.4,3.743,0.603,7.161,101.2627,2.521,3.73,25.38,0,109.6,13.53,3.28,296.4
"2009-01-11 00:24:00",530325,10.81,336.3,4.575,0.503,7.326,101.2636,2.523,3.731,25.39,0,109.6,13.53,3.28,298.3
"2009-01-11 00:24:30",530326,10.95,333.1,4.317,0.499,7.215,101.2636,2.524,3.744,25.44,0,109.6,13.53,3.28,295.1
"2009-01-11 00:25:00",530327,10.58,332.8,4.034,0.672,7.295,101.2599,2.514,3.762,25.56,0,109.6,13.53,3.27,294.8
"2009-01-11 00:25:30",530328,10.22,332.1,3.805,0.793,7.366,101.2605,2.516,3.749,25.47,0,109.6,13.53,3.28,294.1
"2009-01-11 00:26:00",530329,10.26,328.8,4.795,0.608,7.433,101.2611,2.517,3.732,25.53,0,109.6,13.53,3.28,290.8
"2009-01-11 00:26:30",530330,10.3,325.5,3.591,0.545,7.209,101.2591,2.512,3.73,25.61,0,109.6,13.53,3.27,287.5
"2009-01-11 00:27:00",530331,10.62,324.6,4.444,0.692,7.44,101.2591,2.512,3.747,25.59,0,109.6,13.53,3.27,286.6
"2009-01-11 00:27:30",530332,10.66,325.2,4.251,0.524,7.401,101.2597,2.513,3.727,25.51,0,109.6,13.53,3.27,287.2
"2009-01-11 00:28:00",530333,10.64,323.3,4.395,0.55,7.502,101.2605,2.516,3.73,25.67,0,109.6,13.53,3.28,285.3
"2009-01-11 00:28:30",530334,10.49,328.9,4.791,0.703,7.381,101.25,2.489,3.71,25.74,0,109.6,13.53,3.25,290.9
"2009-01-11 00:29:00",530335,11.2,331.2,4.661,0.791,7.51,101.2585,2.511,3.715,25.52,0,109.6,13.53,3.27,293.2
"2009-01-11 00:29:30",530336,10.63,327.8,3.919,0.679,7.414,101.2617,2.518,3.706,25.46,0,109.6,13.53,3.28,289.8
"2009-01-11 00:30:00",530337,10.45,328.3,4.651,0.594,7.435,101.2611,2.517,3.736,25.48,0,109.6,13.53,3.28,290.3
"2009-01-11 00:30:30",530338,10.57,325.3,3.968,0.583,7.368,101.262,2.519,3.727,25.58,0,109.6,13.53,3.28,287.3
"2009-01-11 00:31:00",530339,10.27,323.3,3.993,0.603,7.414,101.2628,2.521,3.727,25.67,0,109.6,13.53,3.28,285.3
"2009-01-11 00:31:30",530340,10.76,323.2,3.869,0.728,7.324,101.2608,2.516,3.713,25.8,0,109.6,13.53,3.28,285.2
"2009-01-11 00:32:00",530341,10.47,325.2,4.335,0.597,7.548,101.2472,2.482,3.718,25.85,0,109.6,13.53,3.24,287.2
"2009-01-11 00:32:30",530342,10.25,323.2,4.545,0.639,7.465,101.2433,2.472,3.715,25.74,0,109.6,13.53,3.23,285.2
"2009-01-11 00:33:00",530343,10.09,324.1,4.503,0.719,7.348,101.2342,2.448,3.713,25.76,0,109.6,13.53,3.21,286.1
"2009-01-11 00:33:30",530344,10.36,318.9,4.208,0.516,7.396,101.2266,2.429,3.699,26,0,109.6,13.53,3.19,280.9
"2009-01-11 00:34:00",530345,10.48,318.7,4.146,0.618,7.435,101.2269,2.43,3.684,26.04,0,109.6,13.52,3.19,280.7
"2009-01-11 00:34:30",530346,10.53,317.2,3.445,0.528,7.135,101.2274,2.431,3.671,26.09,0,109.6,13.52,3.19,279.2
"2009-01-11 00:35:00",530347,10.42,318.2,3.163,0.653,7.078,101.2271,2.43,3.669,26.19,0,109.6,13.53,3.19,280.2
"2009-01-11 00:35:30",530348,10.04,315.8,4.204,0.609,7.168,101.2277,2.432,3.657,26.21,0,109.6,13.52,3.19,277.8
"2009-01-11 00:36:00",530349,9.69,313.5,4.187,0.617,7.209,101.2209,2.415,3.645,26.19,0,109.6,13.53,3.17,275.5
"2009-01-11 00:36:30",530350,9.62,312.3,4.045,0.573,6.906,101.2133,2.395,3.639,26.23,0,109.6,13.52,3.16,274.3
"2009-01-11 00:37:00",530351,10.01,317.2,4.01,0.58,6.794,101.1983,2.357,3.65,26.38,0,109.6,13.53,3.12,279.2
"2009-01-11 00:37:30",530352,9.79,319.4,4.344,0.579,6.798,101.1969,2.353,3.62,26.41,0,109.6,13.53,3.11,281.4
"2009-01-11 00:38:00",530353,9.32,318.4,4.638,0.755,6.859,101.1949,2.348,3.609,26.42,0,109.6,13.53,3.11,280.4
"2009-01-11 00:38:30",530354,9.42,317.3,4.118,0.594,6.893,101.1963,2.352,3.595,26.43,0,109.6,13.53,3.11,279.3
"2009-01-11 00:39:00",530355,9.77,313.3,4.347,0.621,6.867,101.1963,2.352,3.6,26.51,0,109.6,13.53,3.11,275.3
"2009-01-11 00:39:30",530356,9.68,312.5,3.744,0.613,6.456,101.1853,2.324,3.571,26.55,0,109.6,13.53,3.08,274.5
"2009-01-11 00:40:00",530357,9.87,310.2,3.961,0.7,6.441,101.1618,2.264,3.548,26.65,0,109.6,13.53,3.02,272.2
"2009-01-11 00:40:30",530358,9.39,308.3,5.696,0.974,5.536,101.1604,2.26,3.491,26.72,0,109.6,13.53,3.02,270.3
"2009-01-11 00:41:00",530359,8.58,309.1,5.784,1.025,5.162,101.157,2.251,3.421,26.69,0,109.6,13.53,3.01,271.1
"2009-01-11 00:41:30",530360,9.05,311,5.72,1.027,4.528,101.1466,2.225,3.238,26.52,0,109.6,13.53,2.98,273.0
"2009-01-11 00:42:00",530361,9.8,313.8,4.496,0.921,6.678,101.1446,2.22,3.457,26.83,0,109.6,13.54,2.98,275.8
"2009-01-11 00:42:30",530362,9.8,316.3,5.118,0.847,7.18,101.1381,2.203,3.402,26.86,0,109.6,13.54,2.96,278.3
"2009-01-11 00:43:00",530363,9.91,318.8,2.55,0.753,7.597,101.1296,2.181,3.456,26.89,0,109.6,13.54,2.94,280.8
"2009-01-11 00:43:30",530364,10.23,316.9,4.252,0.654,7.371,101.1299,2.182,3.448,26.91,0,109.6,13.54,2.94,278.9
"2009-01-11 00:44:00",530365,10.04,319.1,4.755,0.713,7.569,101.1307,2.184,3.436,26.89,0,109.6,13.54,2.94,281.1
"2009-01-11 00:44:30",530366,9.88,319.3,3.75,0.565,7.121,101.131,2.185,3.435,26.85,0,109.6,13.54,2.94,281.3
"2009-01-11 00:45:00",530367,10.6,322.8,4.226,0.877,7.091,101.1307,2.184,3.44,26.85,0,109.6,13.54,2.94,284.8
"2009-01-11 00:45:30",530368,10.51,322.3,4.448,0.667,7.153,101.1305,2.184,3.444,26.9,0,109.6,13.54,2.94,284.3
"2009-01-11 00:46:00",530369,10.37,321,4.063,0.701,7.209,101.131,2.185,3.422,26.82,0,109.6,13.54,2.94,283.0
"2009-01-11 00:46:30",530370,9.69,320.6,4.309,0.499,7.221,101.1316,2.187,3.422,26.79,0,109.6,13.54,2.95,282.6
"2009-01-11 00:47:00",530371,9.89,323.6,4.382,0.483,7.071,101.1319,2.187,3.422,26.81,0,109.6,13.54,2.95,285.6
"2009-01-11 00:47:30",530372,9.96,325.7,4.064,0.68,7.189,101.1333,2.191,3.436,26.82,0,109.6,13.54,2.95,287.7
"2009-01-11 00:48:00",530373,9.76,324.2,4.05,0.654,7.268,101.1367,2.2,3.442,26.8,0,109.6,13.54,2.96,286.2
"2009-01-11 00:48:30",530374,10.22,328.2,3.842,0.638,6.978,101.1427,2.215,3.427,26.82,0,109.6,13.54,2.97,290.2
"2009-01-11 00:49:00",530375,10.36,325.9,4.169,0.559,7.157,101.1364,2.199,3.438,26.84,0,109.6,13.53,2.96,287.9
"2009-01-11 00:49:30",530376,10.32,329.4,3.342,0.859,6.949,101.1325,2.189,3.439,26.89,0,109.6,13.53,2.95,291.4
"2009-01-11 00:50:00",530377,10.33,326.9,4.568,0.499,7.288,101.1356,2.197,3.438,26.88,0,109.6,13.53,2.96,288.9
"2009-01-11 00:50:30",530378,10.14,325.5,4.276,0.518,7.365,101.1367,2.2,3.433,26.89,0,109.6,13.53,2.96,287.5
"2009-01-11 00:51:00",530379,9.53,320.4,4.6,0.668,7.116,101.135,2.195,3.434,26.99,0,109.6,13.53,2.95,282.4
"2009-01-11 00:51:30",530380,9.88,322.1,4.102,0.696,7.11,101.1345,2.194,3.413,26.95,0,109.6,13.53,2.95,284.1
"2009-01-11 00:52:00",530381,9.79,321.9,4.152,0.675,7.14,101.1353,2.196,3.415,26.94,0,109.6,13.53,2.96,283.9
"2009-01-11 00:52:30",530382,10.24,322.4,3.727,0.491,7.148,101.1342,2.193,3.381,26.93,0,109.6,13.53,2.95,284.4
"2009-01-11 00:53:00",530383,10.26,324.9,3.826,0.683,7.062,101.1339,2.192,3.413,26.91,0,109.6,13.53,2.95,286.9
"2009-01-11 00:53:30",530384,10.46,325.2,3.418,0.695,6.988,101.1348,2.195,3.399,26.89,0,109.6,13.53,2.95,287.2
"2009-01-11 00:54:00",530385,10.22,324.3,3.597,0.588,7.097,101.1345,2.194,3.412,26.89,0,109.6,13.53,2.95,286.3
"2009-01-11 00:54:30",530386,10.49,325.2,3.42,0.518,6.905,101.1327,2.19,3.404,27,0,109.6,13.54,2.95,287.2
"2009-01-11 00:55:00",530387,10.02,325,4.032,0.569,7.108,101.1316,2.187,3.413,26.99,0,109.6,13.54,2.95,287.0
"2009-01-11 00:55:30",530388,9.85,324,4.26,0.643,7.16,101.1342,2.193,3.399,26.91,0,109.6,13.54,2.95,286.0
"2009-01-11 00:56:00",530389,10.27,322.7,4.498,0.793,7.279,101.1356,2.197,3.419,26.92,0,109.6,13.54,2.96,284.7
"2009-01-11 00:56:30",530390,10.54,323.8,4.091,0.571,7.255,101.1348,2.195,3.41,26.79,0,109.6,13.54,2.95,285.8
"2009-01-11 00:57:00",530391,10.16,325.5,3.882,0.557,7.089,101.1385,2.204,3.406,26.79,0,109.6,13.54,2.96,287.5
"2009-01-11 00:57:30",530392,10.21,324.7,4.082,0.557,7.069,101.1382,2.203,3.418,26.86,0,109.6,13.54,2.96,286.7
"2009-01-11 00:58:00",530393,10.48,319.7,4.09,0.569,7.171,101.1362,2.198,3.408,26.89,0,109.6,13.54,2.96,281.7
"2009-01-11 00:58:30",530394,10.31,320.7,3.314,0.624,7.046,101.1371,2.201,3.398,26.87,0,109.6,13.54,2.96,282.7
"2009-01-11 00:59:00",530395,10.46,322.5,4.784,0.593,7.054,101.1328,2.19,3.382,26.87,0,109.6,13.54,2.95,284.5
"2009-01-11 00:59:30",530396,10.28,325.7,3.952,0.598,7.07,101.1297,2.182,3.387,26.85,0,109.6,13.54,2.94,287.7
"2009-01-11 01:00:00",530397,10.37,321.6,4.51,0.538,7.135,101.1238,2.167,3.372,26.88,0,109.6,13.54,2.93,283.6
"2009-01-11 01:00:30",530398,10.66,320.6,3.769,0.616,7.058,101.1207,2.159,3.372,26.91,0,109.6,13.54,2.92,282.6
"2009-01-11 01:01:00",530399,11.36,318.1,4.573,0.572,6.95,101.1116,2.136,3.376,26.97,0,109.6,13.54,2.90,280.1
"2009-01-11 01:01:30",530400,11.39,316,4.854,0.649,6.994,101.1037,2.115,3.356,27.01,0,109.6,13.54,2.87,278.0
"2009-01-11 01:02:00",530401,11.77,312.8,4.784,0.586,7.019,101.1054,2.12,3.345,27.12,0,109.6,13.54,2.88,274.8
"2009-01-11 01:02:30",530402,11.75,312.6,4.292,0.502,7.107,101.1014,2.11,3.33,27.11,0,109.6,13.54,2.87,274.6
"2009-01-11 01:03:00",530403,11,311.5,4.464,0.637,7.199,101.0921,2.086,3.331,27.13,0,109.6,13.54,2.85,273.5
"2009-01-11 01:03:30",530404,10.05,316.1,4.56,0.666,7.111,101.085,2.068,3.32,27.12,0,109.6,13.54,2.83,278.1
"2009-01-11 01:04:00",530405,10.31,317.6,4.45,0.738,7.177,101.0847,2.067,3.299,27,0,109.6,13.54,2.83,279.6
"2009-01-11 01:04:30",530406,11.07,313.8,3.932,0.652,7.047,101.083,2.063,3.315,27.1,0,109.6,13.54,2.82,275.8
"2009-01-11 01:05:00",530407,10.73,312.7,4.315,0.729,6.95,101.0816,2.059,3.303,27.17,0,109.6,13.54,2.82,274.7
"2009-01-11 01:05:30",530408,10.16,313.9,3.999,0.644,7.001,101.0742,2.04,3.283,27.23,0,109.6,13.53,2.80,275.9
"2009-01-11 01:06:00",530409,10.44,310.1,5.721,0.668,6.819,101.0706,2.031,3.274,27.22,0,109.6,13.53,2.79,272.1
"2009-01-11 01:06:30",530410,10.47,306.3,3.887,0.31,6.922,101.0714,2.033,3.27,27.32,0,109.6,13.53,2.79,268.3
"2009-01-11 01:07:00",530411,10.16,308,4.641,0.604,6.678,101.0697,2.029,3.256,27.38,0,109.6,13.53,2.79,270.0
"2009-01-11 01:07:30",530412,9.57,311.6,4.233,0.676,6.456,101.057,1.996,3.226,27.4,0,109.6,13.53,2.76,273.6
"2009-01-11 01:08:00",530413,9.99,314.3,5.85,0.625,6.597,101.0485,1.975,3.218,27.29,0,109.6,13.53,2.73,276.3
"2009-01-11 01:08:30",530414,10.49,310.6,4.609,0.647,6.331,101.04,1.953,3.215,27.36,0,109.6,13.53,2.71,272.6
"2009-01-11 01:09:00",530415,10.6,311.4,4.416,0.548,6.557,101.0363,1.944,3.22,27.39,0,109.6,13.53,2.70,273.4
"2009-01-11 01:09:30",530416,11.17,313.7,4.57,0.673,6.637,101.038,1.948,3.196,27.36,0,109.6,13.53,2.71,275.7
"2009-01-11 01:10:00",530417,11.46,313.1,4.68,0.848,6.723,101.0366,1.944,3.206,27.32,0,109.6,13.54,2.70,275.1
"2009-01-11 01:10:30",530418,10.79,313.2,4.425,0.584,6.918,101.038,1.948,3.195,27.35,0,109.6,13.54,2.71,275.2
"2009-01-11 01:11:00",530419,10.55,317.6,5.012,0.631,6.781,101.0375,1.946,3.192,27.37,0,109.6,13.54,2.71,279.6
"2009-01-11 01:11:30",530420,10.54,309.2,4.802,0.677,6.808,101.036,1.943,3.16,27.46,0,109.6,13.54,2.70,271.2
"2009-01-11 01:12:00",530421,10.87,307.9,4.461,0.479,6.77,101.0324,1.933,3.166,27.55,0,109.6,13.54,2.69,269.9
"2009-01-11 01:12:30",530422,10.85,315.3,3.393,0.646,6.713,101.0239,1.912,3.137,27.48,0,109.6,13.54,2.67,277.3
"2009-01-11 01:13:00",530423,10.25,312.2,4.47,0.627,6.537,101.0194,1.9,3.135,27.61,0,109.6,13.54,2.66,274.2
"2009-01-11 01:13:30",530424,10.15,311.6,5.054,0.696,6.622,101.0098,1.876,3.128,27.6,0,109.6,13.54,2.63,273.6
"2009-01-11 01:14:00",530425,10.24,312.4,4.704,0.618,6.732,101.0055,1.865,3.111,27.6,0,109.6,13.54,2.62,274.4
"2009-01-11 01:14:30",530426,9.95,311.3,5.594,0.551,6.567,101.0041,1.861,3.115,27.73,0,109.5,13.54,2.62,273.3
"2009-01-11 01:15:00",530427,10.16,305.4,3.956,0.829,6.556,101.0024,1.857,3.089,27.81,0,109.6,13.54,2.62,267.4
"2009-01-11 01:15:30",530428,10.95,315,5.188,0.699,6.436,100.9959,1.84,3.073,27.87,0,109.6,13.54,2.60,277.0
"2009-01-11 01:16:00",530429,10.76,315,4.467,0.726,6.464,100.9834,1.809,3.062,27.92,0,109.6,13.54,2.57,277.0
"2009-01-11 01:16:30",530430,10.82,311.2,3.51,0.547,6.627,100.971,1.777,3.055,27.97,0,109.6,13.54,2.54,273.2
"2009-01-11 01:17:00",530431,10.8,306.9,4.532,0.617,6.804,100.9704,1.775,3.044,27.97,0,109.6,13.54,2.53,268.9
"2009-01-11 01:17:30",530432,10.67,308.6,4.223,0.735,6.523,100.9696,1.773,2.997,27.91,0,109.6,13.54,2.53,270.6
"2009-01-11 01:18:00",530433,10.38,308.5,3.277,0.772,6.467,100.9739,1.784,3,27.91,0,109.6,13.54,2.54,270.5
"2009-01-11 01:18:30",530434,10.96,308.4,4.084,0.475,6.855,100.9744,1.786,3.013,27.92,0,109.5,13.54,2.54,270.4
"2009-01-11 01:19:00",530435,10.87,316.6,5.759,0.73,6.64,100.9739,1.784,2.999,27.83,0,109.6,13.54,2.54,278.6
"2009-01-11 01:19:30",530436,11.31,312.7,4.914,0.488,6.664,100.973,1.782,3.018,27.75,0,109.6,13.54,2.54,274.7
"2009-01-11 01:20:00",530437,11.19,310.5,4.503,0.628,6.912,100.9764,1.791,3.007,27.83,0,109.6,13.54,2.55,272.5
"2009-01-11 01:20:30",530438,11.26,318.1,5.84,0.661,7.03,100.9801,1.8,3.018,27.62,0,109.5,13.54,2.56,280.1
"2009-01-11 01:21:00",530439,10.57,317.4,4.81,0.615,7.086,101.0002,1.851,3.045,27.51,0,109.6,13.54,2.61,279.4
"2009-01-11 01:21:30",530440,10.4,312.4,4.508,0.784,7.076,101.0081,1.871,3.038,27.56,0,109.6,13.54,2.63,274.4
"2009-01-11 01:22:00",530441,11.23,314.7,3.875,0.778,7.068,101.0101,1.877,3.061,27.42,0,109.6,13.54,2.64,276.7
"2009-01-11 01:22:30",530442,10.8,313.6,4.219,0.693,7.058,101.0234,1.911,3.066,27.49,0,109.6,13.54,2.67,275.6
"2009-01-11 01:23:00",530443,10.49,320.6,5.915,0.919,7.02,101.0245,1.913,3.112,27.51,0,109.6,13.54,2.67,282.6
"2009-01-11 01:23:30",530444,10.73,314.1,5.573,0.754,7.056,101.0381,1.948,3.1,27.34,0,109.6,13.54,2.71,276.1
"2009-01-11 01:24:00",530445,10.75,315.2,5.193,0.742,6.964,101.0449,1.965,3.106,27.41,0,109.6,13.54,2.72,277.2
"2009-01-11 01:24:30",530446,10.55,318.3,5.48,0.647,7.125,101.0435,1.962,3.129,27.35,0,109.6,13.54,2.72,280.3
"2009-01-11 01:25:00",530447,10.03,315,4.984,0.658,7.114,101.0461,1.968,3.141,27.32,0,109.6,13.54,2.73,277.0
"2009-01-11 01:25:30",530448,10.22,326.2,4.815,0.876,7,101.0449,1.965,3.147,27.26,0,109.6,13.54,2.72,288.2
"2009-01-11 01:26:00",530449,10.61,326.3,5.292,0.69,7.049,101.0596,2.003,3.145,27.04,0,109.6,13.54,2.76,288.3
"2009-01-11 01:26:30",530450,11.1,328.1,4.291,0.829,7.02,101.0769,2.047,3.176,26.97,0,109.6,13.54,2.81,290.1
"2009-01-11 01:27:00",530451,10.34,326.8,4.18,0.612,7.019,101.0794,2.053,3.189,27.02,0,109.6,13.54,2.81,288.8
"2009-01-11 01:27:30",530452,10.39,323.7,4.479,0.7,7.037,101.0789,2.052,3.213,27.14,0,109.6,13.54,2.81,285.7
"2009-01-11 01:28:00",530453,10.07,320.3,5.132,0.703,7.058,101.0789,2.052,3.223,27.3,0,109.6,13.54,2.81,282.3
"2009-01-11 01:28:30",530454,10.21,317.9,3.998,0.672,7.009,101.0686,2.026,3.213,27.41,0,109.6,13.54,2.78,279.9
"2009-01-11 01:29:00",530455,10.5,324.8,6.295,0.714,6.984,101.0622,2.009,3.213,27.3,0,109.6,13.54,2.77,286.8
"2009-01-11 01:29:30",530456,10.46,326.4,4.529,0.763,7.141,101.0621,2.009,3.21,27.12,0,109.6,13.54,2.77,288.4
"2009-01-11 01:30:00",530457,10.24,320.4,4.779,0.582,7.136,101.0709,2.032,3.225,27.13,0,109.6,13.54,2.79,282.4
"2009-01-11 01:30:30",530458,11.04,322.4,3.572,0.653,7.088,101.0681,2.025,3.206,27.15,0,109.5,13.54,2.78,284.4
"2009-01-11 01:31:00",530459,10.95,322,4.34,0.701,7.048,101.0763,2.046,3.217,27.11,0,109.6,13.54,2.80,284.0
"2009-01-11 01:31:30",530460,10.36,321.5,5.551,0.66,7.018,101.0667,2.021,3.219,27.31,0,109.6,13.55,2.78,283.5
"2009-01-11 01:32:00",530461,10.61,327.3,5.131,0.614,7.202,101.0715,2.033,3.206,27.1,0,109.6,13.54,2.79,289.3
"2009-01-11 01:32:30",530462,10.54,326.1,4.296,0.648,7.078,101.0783,2.051,3.204,27.11,0,109.5,13.55,2.81,288.1
"2009-01-11 01:33:00",530463,9.87,326.7,4.557,0.781,7.07,101.0741,2.04,3.223,27.2,0,109.6,13.55,2.80,288.7
"2009-01-11 01:33:30",530464,9.08,325.8,4.129,0.586,7.157,101.0777,2.049,3.217,26.98,0,109.6,13.55,2.81,287.8
"2009-01-11 01:34:00",530465,8.95,329.1,4,0.604,7.036,101.08,2.055,3.214,26.96,0,109.6,13.55,2.81,291.1
"2009-01-11 01:34:30",530466,9.24,323.3,4.686,0.572,7.041,101.08,2.055,3.23,26.93,0,109.6,13.55,2.81,285.3
"2009-01-11 01:35:00",530467,9.1,325.5,4.423,0.676,6.795,101.0791,2.053,3.235,26.95,0,109.6,13.55,2.81,287.5
"2009-01-11 01:35:30",530468,9.25,327.7,4.193,0.689,6.788,101.0809,2.057,3.245,26.88,0,109.6,13.55,2.82,289.7
"2009-01-11 01:36:00",530469,9.82,325.5,3.629,0.644,6.589,101.0797,2.054,3.23,27.05,0,109.6,13.55,2.81,287.5
"2009-01-11 01:36:30",530470,9.94,326,4.113,0.426,6.804,101.0794,2.053,3.247,27.09,0,109.6,13.55,2.81,288.0
"2009-01-11 01:37:00",530471,9.41,326.8,3.74,0.559,6.819,101.0797,2.054,3.256,27.03,0,109.6,13.55,2.81,288.8
"2009-01-11 01:37:30",530472,9.74,324.2,4.025,0.719,6.832,101.0806,2.056,3.239,27.01,0,109.6,13.54,2.82,286.2
"2009-01-11 01:38:00",530473,10.7,321.6,4.186,0.784,6.774,101.0783,2.051,3.244,27.11,0,109.6,13.54,2.81,283.6
"2009-01-11 01:38:30",530474,10.91,321.4,4.141,0.511,6.819,101.0789,2.052,3.23,27.26,0,109.5,13.54,2.81,283.4
"2009-01-11 01:39:00",530475,11.25,321.4,3.6,1.078,6.743,101.0678,2.024,3.239,27.46,0,109.6,13.54,2.78,283.4
"2009-01-11 01:39:30",530476,11.51,320.3,3.811,0.708,6.908,101.0463,1.969,3.218,27.65,0,109.6,13.54,2.73,282.3
"2009-01-11 01:40:00",530477,10.82,319.6,3.838,0.673,7.343,101.0449,1.965,3.201,27.49,0,109.6,13.54,2.72,281.6
"2009-01-11 01:40:30",530478,11.35,320.5,4.229,0.534,7.511,101.0483,1.974,3.191,27.28,0,109.6,13.54,2.73,282.5
"2009-01-11 01:41:00",530479,11.99,319.5,4.097,0.654,7.428,101.0568,1.996,3.221,27.47,0,109.6,13.54,2.75,281.5
"2009-01-11 01:41:30",530480,11.82,318.6,3.861,0.719,7.46,101.0724,2.035,3.218,27.4,0,109.6,13.54,2.79,280.6
"2009-01-11 01:42:00",530481,11.82,321.1,4.128,0.616,7.575,101.0786,2.051,3.227,27.29,0,109.6,13.54,2.81,283.1
"2009-01-11 01:42:30",530482,11.61,323.1,4.525,0.418,7.671,101.0854,2.069,3.235,27.23,0,109.6,13.54,2.83,285.1
"2009-01-11 01:43:00",530483,11.46,324.3,4.767,0.698,7.77,101.0992,2.104,3.262,27.18,0,109.6,13.54,2.86,286.3
"2009-01-11 01:43:30",530484,11.85,323.5,4.494,0.793,7.798,101.1131,2.139,3.297,26.96,0,109.6,13.55,2.90,285.5
"2009-01-11 01:44:00",530485,11.89,319,4.244,0.896,7.623,101.1139,2.142,3.303,27.07,0,109.6,13.55,2.90,281.0
"2009-01-11 01:44:30",530486,12.23,329.3,4.042,0.581,7.811,101.1309,2.185,3.328,26.91,0,109.5,13.55,2.94,291.3
"2009-01-11 01:45:00",530487,12.1,322.4,5.332,0.824,7.751,101.1473,2.227,3.355,26.92,0,109.6,13.55,2.99,284.4
"2009-01-11 01:45:30",530488,12.66,324.4,4.433,0.849,7.798,101.1462,2.224,3.359,26.89,0,109.6,13.55,2.98,286.4
"2009-01-11 01:46:00",530489,12.36,320.4,4.922,0.661,7.969,101.1482,2.229,3.397,26.87,0,109.6,13.55,2.99,282.4
"2009-01-11 01:46:30",530490,11.92,321.3,5.24,0.519,7.813,101.157,2.251,3.41,26.88,0,109.6,13.55,3.01,283.3
"2009-01-11 01:47:00",530491,11.22,323.4,4.83,0.632,7.845,101.1623,2.265,3.408,26.83,0,109.6,13.55,3.02,285.4
"2009-01-11 01:47:30",530492,11.9,324.2,4.391,0.67,7.777,101.1635,2.268,3.417,26.79,0,109.6,13.55,3.03,286.2
"2009-01-11 01:48:00",530493,11.87,323.4,4.508,0.706,7.565,101.1649,2.272,3.432,26.87,0,109.6,13.55,3.03,285.4
"2009-01-11 01:48:30",530494,11.5,328,4.287,0.543,7.949,101.1629,2.266,3.438,26.83,0,109.6,13.55,3.03,290.0
"2009-01-11 01:49:00",530495,11.86,325.1,4.075,0.614,7.733,101.1646,2.271,3.463,26.76,0,109.6,13.55,3.03,287.1